Find Starlink 11537

NORAD ID: 62911 Int'l Des: 2025-027 Owner: SPXS Country: US Constellation: starlink operational
LEOCIRCULAR

Live Position

Loading 3D Globe...

About Starlink 11537

Description loading...

Upcoming Passes

Passes for default location (London). Set your location on the main map for personalized predictions.

Altitude History

Loading altitude history...

Two-Line Element Set

1 62911U 25027E 26125.03664889 .00200747 00000-0 15237-2 0 9995
2 62911 43.0001 8.0572 0002849 254.1809 105.8744 15.70943198 72053
Epoch: May 5, 2026 • Age: 20 hours

Current Status

Altitude 360.2 km
Velocity 7.70 km/s
Sub-Earth Point 43.12°N, 84.13°W
Launch Date Feb 8, 2025
Age 1.2 years
Type internet

Technical Details

Classification Payload
Mass 960.00 kg
Dry Mass 910.00 kg
Total Mass 960.00 kg
Length 0.30 m
Diameter 4.10 m
Span 29.00 m
Shape Box + pan
Manufacturer SPXS
Bus Type Starlink V2MD
Phase Status In Orbit
Owner/State SPXS/US

Most Searched